STARLINK-1929 (46788 NORAD) Tracking and Keplerian Element Data

This shows tracking and keplerian element data for the satellite.

Feedback or suggestion? Click here.




ElementValue
Catalog46788
NameSTARLINK-1929
Epoch Orbit481
Epoch Day328.16667824
Epoch Year2020
RAAN15.4672
Inclination53.0556
Eccentricity0.0001101
Argument of Perigee64.528
Mean Anonmoly167.2291
Mean Motion15.62767424
Decay Rate0.00029238
L11 46788U 20074BB 20328.16667824 .00029238 00000-0 32382-3 0 9996
L22 46788 53.0556 15.4672 0001101 64.5280 167.2291 15.62767424 4817

Live tracking and technical data element details for STARLINK-1929 (NORAD 46788). STARLINK-1929 can be tracked NOW for your location showing map with azimuth and elevation plus other details from your city location.

Track the satellite on the map from your city or location and see movement details for azimuth, elevation, latitude, longitude, range, height, and movement on the map or in text.







IsCatalogInMostPopularTable: catalog: 46788, numindb: 7
Update: records affected: 1



GetName: 46788 STARLINK-1929

Hit Count: updated at: Tue, 24 Nov 2020 12:50:30 GMT